Home > Weather > Kraków > Past weeks

Flag for Poland Past Weather in Kraków, Poland — Yesterday and Last 2 Weeks

Now
68 °F

Passing clouds.


Feels Like: 68 °F
Forecast: 60 / 85 °F
Wind: 6 mph from Northeast

Location: Krakow Airport

Current Time: Jul 23, 2016 at 11:16:38 PM

Latest Report: Jul 23, 2016 at 10:30 PM


Visibility: N/A

Pressure: 30.07 "Hg

Humidity: 73%

Dew Point: 59 °F

Location of KrakówLocation

Past Weather in Kraków — Graph

°F

Kraków Temperature Yesterday

Maximum temperature yesterday: 81 °F (at 3:30 PM)
Minimum temperature yesterday: 55 °F (at 5:30 AM)
Average temperature yesterday: 69 °F

High & Low Weather Summary for the Past Weeks

 TemperatureHumidityPressure
High90 °F (Jul 11, 2:30 PM)100% (Jul 12, 11:00 PM)30.18 "Hg (Jul 12, 11:00 PM)
Low50 °F (Jul 21, 4:00 AM)34% (Jul 22, 4:00 PM)29.62 "Hg (Jul 14, 7:30 AM)
Average66 °F74%30.00 "Hg
* Reported Jul 8 10:00 PM — Jul 23 10:00 PM, Kraków, Weather by CustomWeather, © 2016

Note: Actual official high and low records may vary slightly from our data, if they occured in-between our weather recording intervals... More about our weather records

Advertising

Kraków Weather History for the Previous 24 Hours

Scroll right to see more
 ConditionsComfort  
Time TempWeatherWind HumidityBarometerVisibility
10:00 PM
Sat, Jul 23
68 °FClear.8 mph73%30.07 "Hg10 mi
9:30 PM70 °FSunny.7 mph69%30.07 "Hg10 mi
9:00 PM72 °FSunny.3 mph65%30.07 "Hg10 mi
8:30 PM72 °FSunny.7 mph65%30.04 "Hg10 mi
8:00 PM75 °FPassing clouds.6 mph57%30.04 "HgN/A
7:30 PM77 °FPassing clouds.6 mph54%30.04 "HgN/A
7:00 PM79 °FPassing clouds.7 mph48%30.04 "HgN/A
6:30 PM79 °FPassing clouds.6 mph48%30.04 "HgN/A
6:00 PM79 °FPassing clouds.8 mph51%30.04 "HgN/A
5:30 PM79 °FPassing clouds.6 mph48%30.04 "HgN/A
5:00 PM81 °FPassing clouds.6 mph48%30.04 "HgN/A
4:30 PM81 °FPassing clouds.5 mph42%30.04 "HgN/A
4:00 PM81 °FPassing clouds.7 mph42%30.07 "HgN/A
3:30 PM81 °FPassing clouds.5 mph48%30.07 "HgN/A
3:00 PM81 °FPassing clouds.3 mph42%30.07 "HgN/A
2:30 PM81 °FPassing clouds.5 mph39%30.07 "HgN/A
2:00 PM79 °FPassing clouds.5 mph42%30.07 "HgN/A
1:30 PM77 °FPassing clouds.6 mph39%30.07 "HgN/A
1:00 PM79 °FPassing clouds.5 mph39%30.07 "HgN/A
12:30 PM77 °FSunny.3 mph39%30.07 "Hg10 mi
12:00 PM77 °FPassing clouds.5 mph42%30.07 "HgN/A
11:30 AM75 °FPassing clouds.6 mph47%30.07 "HgN/A
11:00 AM75 °FPassing clouds.5 mph44%30.07 "HgN/A
10:30 AM73 °FPassing clouds.6 mph53%30.07 "HgN/A
10:00 AM72 °FSunny.7 mph57%30.07 "Hg10 mi
9:30 AM72 °FPassing clouds.5 mph57%30.07 "HgN/A
9:00 AM70 °FPassing clouds.5 mph60%30.07 "HgN/A
8:30 AM66 °FSunny.6 mph68%30.07 "Hg10 mi
8:00 AM64 °FPassing clouds.6 mph73%30.07 "HgN/A
7:30 AM63 °FPassing clouds.3 mph77%30.07 "HgN/A
7:00 AM59 °FSunny.3 mph82%30.07 "Hg10 mi
6:30 AM57 °FSunny.3 mph82%30.07 "Hg10 mi
6:00 AM54 °FSunny.1 mph88%30.07 "Hg10 mi
5:30 AM54 °FClear.1 mph88%30.04 "Hg10 mi
5:00 AM52 °FClear.5 mph94%30.04 "Hg10 mi
4:30 AM54 °FClear.3 mph88%30.04 "Hg10 mi
4:00 AM55 °FClear.3 mph82%30.04 "Hg10 mi
3:00 AM55 °FClear.5 mph82%30.04 "Hg10 mi
2:30 AM55 °FClear.6 mph82%30.04 "Hg10 mi
2:00 AM55 °FClear.3 mph82%30.04 "Hg10 mi
1:30 AM57 °FClear.2 mph77%30.04 "Hg10 mi
1:00 AM57 °FClear.1 mph77%30.04 "Hg10 mi
12:30 AM59 °FClear.2 mph72%30.04 "Hg10 mi
12:00 AM61 °FClear.1 mph68%30.04 "Hg10 mi
11:30 PM
Fri, Jul 22
61 °FClear.1 mph68%30.04 "Hg10 mi
11:00 PM63 °FPassing clouds.3 mph68%30.04 "HgN/A
Weather by CustomWeather, © 2016

See weather overviewHow to use our weather pages